User: anonymous   Login
Location: Marne
(34.0056°N, 117.9064°W)
Time: 12:59:54
(UTC+00:00)
Language:

Cosmos 1241 Rocket - Orbit

View from above orbital plane
View from above orbital plane
View from above satellite
View from above satellite

Ground track
Ground track

The orbit data is extracted from the following two-line orbital elements,

1 12150U 81006B   20099.16143747 -.00000113  00000-0 -32072-4 0  9992
2 12150  65.8213  47.4053 0043556  56.1661 304.3536 13.77134556970571
Epoch (UTC): 08 April 2020 03:52:28
Eccentricity: 0.0043556
inclination: 65.8213°
perigee height: 942 km
apogee height: 1006 km
right ascension of ascending node: 47.4053°
argument of perigee: 56.1661°
revolutions per day: 13.77134556
mean anomaly at epoch: 304.3536°
orbit number at epoch: 97057

The dashed part of the orbit path shows where the satellite is in the earth's shadow,  

DLR